Hourly Data Report for August 20, 2021

KUGLUKTUK A
NUNAVUT
Current Station Operator: NAVCAN

67°49'00.000" N
115°08'38.000" W
22.60 m
2300903
71938
YCO

Download Data

Hourly Data (August 2021)
Hourly Data Report for August 20, 2021
TIME
LST
Temp Definition
°C
Dew Point Definition
°C
Rel Hum Definition
%
Precip. Amount Definition
mm

Wind Dir Definition
10's deg

Wind Spd Definition
km/h
Visibility Definition
km
Stn Press Definition
kPa
Hmdx Definition


Wind Chill Definition


Weather Definition


00:00 5.3 1.7 77   21 16 24.1 101.62     LegendNANA
01:00 4.3 1.0 79   21 16 24.1 101.59     LegendNANA
02:00 5.0 1.8 80   23 22 24.1 101.57     Mainly Clear
03:00 3.0 1.0 87   23 16 24.1 101.59     LegendNANA
04:00 3.4 1.2 86   28 15 24.1 101.64     LegendNANA
05:00 4.7 2.7 87   30 7 24.1 101.66     Mostly Cloudy
06:00 4.8 3.2 89   29 10 24.1 101.69     LegendNANA
07:00 5.4 3.6 89   36 19 24.1 101.71     LegendNANA
08:00 5.5 3.8 88   2 16 24.1 101.71     Mostly Cloudy
09:00 6.1 4.0 86   1 13 24.1 101.74     LegendNANA
10:00 6.2 3.4 82   2 16 24.1 101.75     LegendNANA
11:00 7.2 4.2 82   7 13 24.1 101.74     Cloudy
12:00 7.0 4.0 81   6 11 24.1 101.72     LegendNANA
13:00 7.4 4.2 80   5 13 24.1 101.71     LegendNANA
14:00 7.8 4.1 77   3 13 24.1 101.70     Cloudy
15:00 8.0 4.1 76   9 13 24.1 101.68     LegendNANA
16:00 8.2 4.2 76   10 18 24.1 101.66     LegendNANA
17:00 8.8 4.2 73   10 18 24.1 101.64     Mainly Clear
18:00 9.5 3.8 67   12 12 24.1 101.62     LegendNANA
19:00 9.2 3.8 69   11 15 24.1 101.61     LegendNANA
20:00 7.7 4.2 79   11 15 24.1 101.59     Clear
21:00 5.8 3.7 86   11 12 24.1 101.60     LegendNANA
22:00 5.3 3.5 88   11 12 24.1 101.59     LegendNANA
23:00 4.7 2.7 87   11 12 24.1 101.58     Mainly Clear

Notes on Data Quality.

Legend

  • E = Estimated
  • M = Missing
  • NA = Not Available*
  • [empty] = Indicates an unobserved value
Date modified: